Flag for U.S.A. Weather past 2 weeks in Inglewood, California, U.S.A.

Now
78 °F

Sunny.


Feels Like: 79 °F
Forecast: 63 / 75 °F
Wind: 7 mph from Southeast

Location: Hawthorne Municipal Airport

Current Time: Aug 23, 2014 at 11:18:16 AM

Latest Report: Aug 23, 2014 at 10:53 AM


Visibility: 10 mi

Pressure: 29.96 "Hg

Humidity: 46%

Dew point: 56 °F

Location of InglewoodLocation

Historic Weather in Inglewood — Graph

°F

Inglewood temperature yesterday

Maximum temperature yesterday: 77 °F (at 2:53 PM)
Minimum temperature yesterday: 68 °F (at 2:53 AM)
Average temperature yesterday: 71 °F

Past Weeks' High & Low Weather Summary

 TemperatureHumidityPressure
High81 °F (Aug 16, 11:53 AM)94% (Aug 15, 3:53 AM)30.01 "Hg (Aug 15, 3:53 AM)
Low64 °F (Aug 15, 3:53 AM)44% (Aug 16, 3:53 PM)29.79 "Hg (Aug 18, 4:53 PM)
Average72 °F74%29.93 "Hg
* Reported Aug 8 9:53 AM — Aug 23 9:53 AM, Inglewood, Weather by CustomWeather, © 2014

Note: Actual official high and low records may vary slightly from our data, if they occured in-between our weather recording intervals... More about our weather records

Advertising

Inglewood weather history for previous 24 hours

 ConditionsComfort  
Time TempWeatherWind HumidityBarometerVisibility
9:53 AM
Aug 23
72 °FSunny.No wind68%29.97 "Hg10 mi
8:53 AM70 °FPartly sunny.No wind73%29.97 "Hg10 mi
7:53 AM69 °FOvercast.3 mph76%29.96 "Hg10 mi
6:53 AM68 °FPassing clouds.No wind78%29.96 "Hg10 mi
5:53 AM69 °FPassing clouds.No wind73%29.95 "Hg10 mi
4:53 AM69 °FOvercast.No wind76%29.94 "Hg10 mi
3:53 AM68 °FPassing clouds.No wind82%29.94 "Hg10 mi
2:53 AM69 °FPassing clouds.No wind79%29.94 "Hg10 mi
1:53 AM69 °FOvercast.No wind81%29.94 "Hg10 mi
12:53 AM69 °FOvercast.No wind81%29.94 "Hg10 mi
11:53 PM
Aug 22
70 °FOvercast.No wind79%29.95 "Hg10 mi
10:53 PM69 °FPassing clouds.3 mph81%29.95 "Hg10 mi
9:53 PM70 °FPassing clouds.5 mph79%29.95 "Hg10 mi
8:53 PM70 °FOvercast.8 mph81%29.94 "Hg10 mi
7:53 PM71 °FOvercast.8 mph78%29.92 "Hg10 mi
6:53 PM71 °FPassing clouds.12 mph78%29.92 "Hg10 mi
5:53 PM74 °FSunny.10 mph71%29.92 "Hg10 mi
4:53 PM76 °FSunny.8 mph69%29.92 "Hg10 mi
3:53 PM76 °FSunny.10 mph67%29.92 "Hg10 mi
2:53 PM77 °FSunny.10 mph66%29.94 "Hg10 mi
1:53 PM76 °FSunny.8 mph67%29.95 "Hg10 mi
12:53 PM76 °FPassing clouds.8 mph67%29.97 "Hg10 mi
11:53 AM74 °FPartly sunny.7 mph71%29.98 "Hg10 mi
Weather by CustomWeather, © 2014

See weather overviewHow to use our weather pages